• In Deutschland
  • Länderverzeichnis
  • Für 7 Tage
  • Wassertemperatur
  • Satellitenkarten
  • Wetterkarte
  • Widgets
  • user-avatar
    Anmelden

    Stündliche Wetter Ronnenberg

    Heute, 19 August, Sonntag

    Zeit Temperatur Niederschläge Wind Luftdruck Luftfeuchtigkeit
    00:00 +18°C° 0 mm 1 m/S 760 mmHg 73%
    01:00 +16°C° 0 mm 1 m/S 760 mmHg 78%
    02:00 +16°C° 0 mm 1 m/S 760 mmHg 81%
    03:00 +16°C° 0 mm 1 m/S 759 mmHg 83%
    04:00 +15°C° 0 mm 1 m/S 759 mmHg 86%
    05:00 +16°C° 0 mm 1 m/S 759 mmHg 82%
    06:00 +18°C° 0 mm 1 m/S 759 mmHg 79%
    07:00 +19°C° 0 mm 1 m/S 759 mmHg 73%
    08:00 +20°C° 0 mm 2 m/S 759 mmHg 66%
    09:00 +23°C° 0 mm 2 m/S 759 mmHg 59%
    10:00 +25°C° 0 mm 3 m/S 759 mmHg 52%
    11:00 +26°C° 0 mm 3 m/S 759 mmHg 49%
    12:00 +27°C° 0 mm 4 m/S 758 mmHg 45%
    13:00 +28°C° 0 mm 4 m/S 758 mmHg 42%
    14:00 +29°C° 0 mm 4 m/S 757 mmHg 42%
    15:00 +29°C° 0 mm 4 m/S 757 mmHg 42%
    16:00 +29°C° 0 mm 4 m/S 757 mmHg 41%
    17:00 +28°C° 0 mm 4 m/S 757 mmHg 47%
    18:00 +26°C° 0 mm 3 m/S 756 mmHg 52%
    19:00 +25°C° 0 mm 3 m/S 756 mmHg 58%
    20:00 +24°C° 0 mm 2 m/S 756 mmHg 63%
    21:00 +21°C° 0 mm 2 m/S 757 mmHg 68%
    22:00 +20°C° 0 mm 2 m/S 757 mmHg 73%
    23:00 +20°C° 0 mm 2 m/S 757 mmHg 74%

    Morgen, 20 August, Montag

    Zeit Temperatur Niederschläge Wind Luftdruck Luftfeuchtigkeit
    00:00 +20°C° 0 mm 2 m/S 756 mmHg 76%
    01:00 +20°C° 0 mm 2 m/S 756 mmHg 78%
    02:00 +20°C° 0 mm 3 m/S 756 mmHg 80%
    03:00 +20°C° 0 mm 3 m/S 756 mmHg 81%
    04:00 +20°C° 0 mm 3 m/S 756 mmHg 83%
    05:00 +20°C° 0,1 mm 4 m/S 756 mmHg 83%
    06:00 +20°C° 0,1 mm 4 m/S 756 mmHg 84%
    07:00 +20°C° 0,1 mm 4 m/S 756 mmHg 84%
    08:00 +21°C° 0,1 mm 4 m/S 756 mmHg 81%
    09:00 +22°C° 0,1 mm 4 m/S 756 mmHg 78%
    10:00 +22°C° 0,1 mm 5 m/S 757 mmHg 74%
    11:00 +23°C° 0,1 mm 5 m/S 757 mmHg 70%
    12:00 +25°C° 0,1 mm 5 m/S 757 mmHg 65%
    13:00 +26°C° 0,1 mm 5 m/S 757 mmHg 61%
    14:00 +26°C° 0 mm 5 m/S 757 mmHg 60%
    15:00 +26°C° 0 mm 5 m/S 757 mmHg 60%
    16:00 +26°C° 0 mm 5 m/S 757 mmHg 60%
    17:00 +25°C° 0 mm 4 m/S 757 mmHg 63%
    18:00 +22°C° 0 mm 4 m/S 757 mmHg 67%
    19:00 +21°C° 0 mm 3 m/S 758 mmHg 71%
    20:00 +20°C° 0 mm 3 m/S 758 mmHg 75%
    21:00 +19°C° 0 mm 2 m/S 758 mmHg 79%
    22:00 +17°C° 0 mm 2 m/S 759 mmHg 83%
    23:00 +16°C° 0 mm 2 m/S 759 mmHg 86%

    übermorgen, 21 August, Dienstag

    Zeit Temperatur Niederschläge Wind Luftdruck Luftfeuchtigkeit
    00:00 +16°C° 0 mm 1 m/S 759 mmHg 88%
    01:00 +15°C° 0 mm 1 m/S 759 mmHg 90%
    02:00 +14°C° 0 mm 1 m/S 759 mmHg 91%
    03:00 +14°C° 0 mm 1 m/S 759 mmHg 92%
    04:00 +13°C° 0 mm 0 m/S 760 mmHg 92%
    05:00 +13°C° 0 mm 0 m/S 760 mmHg 89%
    06:00 +14°C° 0 mm 0 m/S 760 mmHg 85%
    07:00 +16°C° 0 mm 1 m/S 760 mmHg 81%
    08:00 +19°C° 0 mm 1 m/S 760 mmHg 73%
    09:00 +20°C° 0 mm 1 m/S 760 mmHg 64%
    10:00 +22°C° 0 mm 1 m/S 760 mmHg 56%
    11:00 +24°C° 0 mm 1 m/S 760 mmHg 51%
    12:00 +25°C° 0 mm 1 m/S 760 mmHg 46%
    13:00 +27°C° 0 mm 1 m/S 759 mmHg 40%
    14:00 +27°C° 0 mm 1 m/S 759 mmHg 39%
    15:00 +27°C° 0 mm 1 m/S 759 mmHg 38%
    16:00 +28°C° 0 mm 1 m/S 758 mmHg 37%
    17:00 +26°C° 0 mm 1 m/S 758 mmHg 41%
    18:00 +25°C° 0 mm 1 m/S 758 mmHg 45%
    19:00 +24°C° 0 mm 1 m/S 758 mmHg 49%
    20:00 +23°C° 0 mm 1 m/S 758 mmHg 51%
    21:00 +21°C° 0 mm 2 m/S 758 mmHg 52%
    22:00 +20°C° 0 mm 2 m/S 759 mmHg 53%
    23:00 +20°C° 0 mm 2 m/S 758 mmHg 55%

    22 August, Mittwoch

    Zeit Temperatur Niederschläge Wind Luftdruck Luftfeuchtigkeit
    00:00 +20°C° 0 mm 2 m/S 758 mmHg 57%
    01:00 +20°C° 0 mm 2 m/S 758 mmHg 59%
    02:00 +20°C° 0 mm 2 m/S 758 mmHg 60%
    03:00 +20°C° 0 mm 2 m/S 758 mmHg 62%
    04:00 +20°C° 0 mm 2 m/S 757 mmHg 63%
    05:00 +20°C° 0 mm 2 m/S 757 mmHg 64%
    06:00 +20°C° 0 mm 2 m/S 757 mmHg 65%
    07:00 +22°C° 0 mm 1 m/S 757 mmHg 65%
    08:00 +23°C° 0 mm 2 m/S 757 mmHg 62%
    09:00 +25°C° 0 mm 2 m/S 757 mmHg 58%
    10:00 +26°C° 0 mm 2 m/S 757 mmHg 54%
    11:00 +27°C° 0 mm 2 m/S 756 mmHg 50%
    12:00 +28°C° 0 mm 2 m/S 756 mmHg 46%
    13:00 +29°C° 0 mm 2 m/S 756 mmHg 42%
    14:00 +29°C° 0 mm 2 m/S 756 mmHg 43%
    15:00 +29°C° 0 mm 2 m/S 755 mmHg 43%
    16:00 +29°C° 0 mm 2 m/S 755 mmHg 44%
    17:00 +28°C° 0 mm 2 m/S 755 mmHg 47%
    18:00 +27°C° 0 mm 1 m/S 755 mmHg 51%
    19:00 +26°C° 0 mm 1 m/S 755 mmHg 54%
    20:00 +25°C° 0 mm 1 m/S 755 mmHg 57%
    21:00 +24°C° 0 mm 1 m/S 755 mmHg 61%
    22:00 +23°C° 0 mm 1 m/S 756 mmHg 64%
    23:00 +22°C° 0 mm 1 m/S 755 mmHg 68%

    23 August, Donnerstag

    Zeit Temperatur Niederschläge Wind Luftdruck Luftfeuchtigkeit
    00:00 +22°C° 0 mm 1 m/S 755 mmHg 72%
    01:00 +21°C° 0 mm 1 m/S 755 mmHg 76%
    02:00 +21°C° 0 mm 1 m/S 755 mmHg 80%
    03:00 +20°C° 0 mm 1 m/S 755 mmHg 83%
    04:00 +20°C° 0 mm 1 m/S 755 mmHg 86%
    05:00 +20°C° 0 mm 1 m/S 755 mmHg 84%
    06:00 +21°C° 0 mm 1 m/S 755 mmHg 81%
    07:00 +22°C° 0 mm 1 m/S 754 mmHg 79%
    08:00 +23°C° 0 mm 2 m/S 754 mmHg 71%
    09:00 +25°C° 0 mm 2 m/S 754 mmHg 63%
    10:00 +27°C° 0 mm 3 m/S 754 mmHg 56%
    11:00 +28°C° 0 mm 3 m/S 753 mmHg 52%
    12:00 +29°C° 0 mm 3 m/S 753 mmHg 49%
    13:00 +30°C° 0 mm 4 m/S 752 mmHg 45%
    14:00 +30°C° 0 mm 3 m/S 752 mmHg 44%
    15:00 +30°C° 0 mm 3 m/S 752 mmHg 44%
    16:00 +30°C° 0 mm 3 m/S 751 mmHg 43%
    17:00 +29°C° 0 mm 3 m/S 751 mmHg 48%
    18:00 +28°C° 0 mm 2 m/S 751 mmHg 52%
    19:00 +27°C° 0 mm 2 m/S 751 mmHg 57%
    20:00 +25°C° 0,5 mm 2 m/S 751 mmHg 65%
    21:00 +23°C° 0,5 mm 1 m/S 751 mmHg 72%
    22:00 +22°C° 0,5 mm 1 m/S 751 mmHg 80%
    23:00 +20°C° 0,1 mm 2 m/S 750 mmHg 84%

    24 August, Freitag

    Zeit Temperatur Niederschläge Wind Luftdruck Luftfeuchtigkeit
    00:00 +19°C° 0,1 mm 2 m/S 750 mmHg 87%
    01:00 +19°C° 0,1 mm 2 m/S 750 mmHg 91%
    02:00 +18°C° 0,1 mm 2 m/S 750 mmHg 92%
    03:00 +18°C° 0,1 mm 2 m/S 750 mmHg 93%
    04:00 +18°C° 0,1 mm 2 m/S 750 mmHg 94%
    05:00 +18°C° 0,2 mm 2 m/S 750 mmHg 92%
    06:00 +18°C° 0,2 mm 2 m/S 750 mmHg 90%
    07:00 +18°C° 0,2 mm 2 m/S 750 mmHg 88%
    08:00 +18°C° 0,6 mm 2 m/S 750 mmHg 86%
    09:00 +18°C° 0,6 mm 2 m/S 750 mmHg 84%
    10:00 +18°C° 0,6 mm 2 m/S 750 mmHg 81%
    11:00 +18°C° 0,3 mm 2 m/S 750 mmHg 80%
    12:00 +18°C° 0,3 mm 3 m/S 750 mmHg 78%
    13:00 +18°C° 0,3 mm 3 m/S 750 mmHg 77%
    14:00 +18°C° 0,5 mm 3 m/S 750 mmHg 78%
    15:00 +18°C° 0,5 mm 3 m/S 750 mmHg 78%
    16:00 +18°C° 0,5 mm 3 m/S 750 mmHg 78%
    17:00 +17°C° 0,3 mm 3 m/S 751 mmHg 81%
    18:00 +17°C° 0,3 mm 2 m/S 751 mmHg 83%
    19:00 +16°C° 0,3 mm 2 m/S 751 mmHg 85%
    20:00 +15°C° 0,1 mm 2 m/S 751 mmHg 86%
    21:00 +15°C° 0,1 mm 2 m/S 752 mmHg 86%
    22:00 +14°C° 0,1 mm 2 m/S 752 mmHg 87%
    23:00 +14°C° 0 mm 2 m/S 752 mmHg 87%
    Mehr zeigen